Hourly Data Report for June 01, 2020

OTTAWA INTL A
ONTARIO
Current Station Operator: NAVCAN

45°19'00.000" N
75°40'00.000" W
114.90 m
6106001
71628
YOW

Download Data

Hourly Data (June 2020)
Hourly Data Report for June 1, 2020
TIME Temp Definition
°C
Dew Point Definition
°C
Rel Hum Definition
%
Wind Dir Definition
10's deg

Wind Spd Definition
km/h
Visibility Definition
km
Stn Press Definition
kPa
Hmdx Definition


Wind Chill Definition


Weather Definition


00:00 5.9 3.7 86 21 5 24.1 100.79     LegendNANA
01:00 5.4 3.5 88 22 7 24.1 100.77     Mainly Clear
02:00 3.7 2.2 90 20 10 24.1 100.75     LegendNANA
03:00 4.4 3.4 93 24 6 24.1 100.77     LegendNANA
04:00 2.6 1.9 95 24 8 24.1 100.79     Clear
05:00 3.8 3.1 95 20 8 24.1 100.82     LegendNANA
06:00 5.1 4.2 93 25 5 24.1 100.88     LegendNANA
07:00 7.6 5.5 86 26 12 24.1 100.86     Clear
08:00 9.4 5.5 76 25 13 24.1 100.85     LegendNANA
09:00 11.1 5.1 67 27 14 24.1 100.80     LegendNANA
10:00 11.8 4.6 61 27 13 24.1 100.72     Mostly Cloudy
11:00 10.7 3.9 63 29 24 24.1 100.78     Rain
12:00 11.5 3.9 60 11 6 24.1 100.63     Rain
13:00 14.0 4.1 51 19 16 24.1 100.52     Mainly Clear
14:00 15.3 3.3 44 20 14 24.1 100.40     LegendNANA
15:00 16.4 3.4 41 25 8 24.1 100.35     LegendNANA
16:00 17.3 4.1 41 12 7 24.1 100.29     Mostly Cloudy
17:00 17.2 4.2 42 8 9 24.1 100.26     LegendNANA
18:00 16.6 4.8 45 11 12 24.1 100.26     LegendNANA
19:00 14.6 5.4 54 8 16 24.1 100.30     Mainly Clear
20:00 12.3 6.2 66 8 21 24.1 100.34     LegendNANA
21:00 10.8 5.8 71 8 20 24.1 100.37     LegendNANA
22:00 9.9 5.7 75 7 18 24.1 100.37     Mostly Cloudy
23:00 9.1 5.6 78 7 11 24.1 100.36     LegendNANA

Notes on Data Quality.

Legend

  • E = Estimated
  • M = Missing
  • NA = Not Available*
  • [empty] = Indicates an unobserved value
Date modified: